Location: Izdebno
(52.6670°N, 16.2170°E)
Time: 05:23:22
(UTC+01:00)

Envisat - Pass Details

Date: 13 October 2024
Orbit: 761 x 763 km, 98.3° (Epoch: 10 November)

Event Time Altitude Azimuth Distance (km) Brightness Sun altitude
Rises 03:25:29 0° 20° (NNE) 3,240 7.0 -34.2°
Reaches altitude 10° 03:28:00 10° 30° (NNE) 2,309 6.2 -33.9°
Enters shadow 03:32:23 34° 89° (E) 1,239 4.4 -33.4°
